Overview Statistics Trail Chart Weather Telemetry Raw packets
 

This is the latest recevied weather packets stored in our database for station/object SP5MRF. If no packets are shown the sender has not sent any weather packets the latest 10 day(s).

<< 2 3 4 5 6 7 8 >>
Time Temp. Humidity Pressure Rain* Wind** Luminosity Snow
1788625973 16.11° C 65% 1009.5 hPa 0 mm - - -
1788625484 16.67° C 64% 1009.4 hPa 0 mm - - -
1788625006 16.67° C 63% 1009.4 hPa 0 mm - - -
1788624524 16.67° C 62% 1009.2 hPa 0 mm - - -
1788623564 17.22° C 61% 1009.1 hPa 0 mm - - -
1788623084 17.22° C 60% 1009.4 hPa 0 mm - - -
1788622605 17.78° C 60% 1009.3 hPa 0 mm - - -
1788622124 17.78° C 60% 1009.4 hPa 0 mm - - -
1788621644 18.33° C 59% 1009.3 hPa 0 mm - - -
1788620711 18.89° C 56% 1009 hPa 0 mm - - -
1788620204 18.89° C 56% 1008.9 hPa 0 mm - - -
1788619724 19.44° C 55% 1008.9 hPa 0 mm - - -
1788619245 19.44° C 54% 1008.7 hPa 0 mm - - -
1788618764 20° C 54% 1008.6 hPa 0 mm - - -
1788618284 20.56° C 52% 1008.5 hPa 0 mm - - -
1788617804 20.56° C 52% 1008.3 hPa 0 mm - - -
1788617324 20.56° C 53% 1008.3 hPa 0 mm - - -
1788616847 20.56° C 53% 1008.2 hPa 0 mm - - -
1788616364 20.56° C 52% 1008 hPa 0 mm - - -
1788615884 21.11° C 54% 1008.1 hPa 0 mm - - -
1788615404 20.56° C 53% 1008.1 hPa 0 mm - - -
1788614925 20.56° C 54% 1008.1 hPa 0 mm - - -
1788614446 20.56° C 54% 1008.2 hPa 0 mm - - -
1788613964 21.11° C 52% 1008.2 hPa 0 mm - - -
1788613484 22.22° C 51% 1008.2 hPa 0 mm - - -

* Rain latest hour (hover to see other rain measurements)
** Current wind speed in m/s (hover to see current wind gust speed)